Location: Marcé
(47.5801°N, 0.3280°W)
Time: 07:22:50
(UTC+01:00)

Altair - Pass Details

Date: 16 December 2021
Orbit: 1501 x 1683 km, 47.2° (Epoch: 21 January)

Event Time Altitude Azimuth Distance (km) Brightness Sun altitude
Rises 19:32:37 0° 291° (WNW) 4,737 11.0 -22.8°
Reaches altitude 10° 19:35:56 10° 284° (WNW) 3,727 10.4 -23.4°
Maximum altitude 19:44:21 39° 220° (SW) 2,118 8.5 -24.8°
Drops below altitude 10° 19:52:36 10° 155° (SSE) 3,644 9.3 -26.2°
Enters shadow 19:55:33 - 148° (SSE) 4,532 9.7 -26.7°
Sets 19:55:50 0° 148° (SSE) 4,621 - -26.7°
